Tracking 18980 objects as of 23-Feb-2018
HD Live streaming from Space Station
objects crossing your sky now

CZ-2C R/B

Track CZ-2C R/B now!
10-day predictions


NORAD ID: 43084
Int'l Code: 2017-085D
Perigee: 491.0 km
Apogee: 632.2 km
Inclination: 34.7 °
Period: 95.7 minutes
Semi major axis: 6932 km
RCS: Unknown
Launch date: December 25, 2017
Source: People's Republic of China (PRC)
Launch site: Xichang Space Center, China (XSC)

Note: This is a ROCKET BODY
aabbcc
Your satellite tracking list
Your tracking list is empty




NASA's NSSDC Master Catalog

Two Line Element Set (TLE):
1 43084U 17085D   18053.28301324  .00000356  00000-0  24088-4 0  9990
2 43084  34.6700   7.0081 0101814 140.7528 220.0609 15.04040365  8813
Source of the keplerian elements: AFSPC